Location: Arclight Observatory
(36.5667°N, 87.3333°W)
Time: 13:39:23
(UTC-05:00)

Daily predictions for brighter satellites

Satellite Brightness Start Highest point End
(mag) Time Altitude Azimuth Time Altitude Azimuth Time Altitude Azimuth
Cosmos 44 3.7 20:12:11 10° NNW 20:17:29 61° ENE 20:22:50 10° SE
NOSS 3-2 (A) 4.2 20:13:29 10° SSE 20:18:14 27° ESE 20:23:17 10° NE
Okean 2 Rocket 3.1 20:17:49 10° N 20:22:16 89° E 20:26:41 10° S
USA 234 3.3 20:17:40 10° NE 20:24:16 82° SE 20:30:50 10° SW
CZ-2D R/B 3.7 20:20:28 10° S 20:24:18 67° W 20:28:10 10° NNW
Meteor 1-5 Rocket 4.4 20:18:39 10° N 20:24:30 79° E 20:30:27 10° SSE
Cosmos 1536 2.9 20:21:15 10° N 20:25:18 69° E 20:29:21 10° SSE
Cosmos 1674 Rocket 4.1 20:21:27 10° SSE 20:25:34 39° E 20:29:44 10° NNE
Atlas Centaur 2 2.2 20:25:45 10° SW 20:29:00 27° S 20:32:03 10° ESE
Delta 168 4.4 20:28:28 10° SSW 20:29:38 11° S 20:30:47 10° SSE
Resurs 01 Rocket 2.0 20:26:13 10° SSE 20:30:27 48° ENE 20:34:42 10° N
Tiangong 2 2.2 20:27:55 10° SSW 20:30:31 24° SE 20:33:09 10° E
Cosmos 2082 Rocket 2.5 20:26:48 10° SSW 20:32:25 73° WNW 20:38:07 10° NNE
Cosmos 1777 Rocket 4.1 20:27:55 10° NNW 20:33:05 64° ENE 20:38:13 10° SSE
COSMOS 2487 3.0 20:32:12 10° S 20:35:28 37° ESE 20:38:44 10° NE
Envisat 3.7 20:32:15 10° S 20:37:13 55° W 20:42:12 10° NNW
Cosmos 2322 Rocket 4.2 20:35:36 10° NNE 20:37:53 12° NE 20:40:09 10° ENE
Thor Agena Rocket 3.7 20:33:00 10° NNE 20:38:19 88° WNW 20:43:32 10° SSW
Cosmos 1184 Rocket 2.7 20:37:08 10° S 20:40:28 76° E 20:43:50 10° NNE
SJ-6B 4.1 20:38:57 10° S 20:42:27 39° W 20:45:59 10° NNW
SL-16 R/B 4.1 20:41:17 10° NNE 20:44:30 15° NE 20:47:41 10° E
Cosmos 371 Rocket 3.7 20:40:20 10° SSW 20:45:07 68° WNW 20:49:56 10° NNE
Cosmos 2278 4.0 20:42:48 10° NNW 20:48:26 69° WSW 20:54:04 10° S
USA 186 2.5 20:45:45 10° S 20:48:42 50° W 20:51:51 10° NNW
Cosmos 1459 Rocket 4.4 20:45:15 10° SSW 20:51:14 64° W 20:57:15 10° N
IUS-9 SRM-1 4.4 20:48:32 10° SW 20:52:16 35° SSE 21:05:54 10° ESE
Cosmos 2151 Rocket 3.7 20:48:16 10° N 20:52:44 78° W 20:57:09 10° S
ARGOS 4.2 20:49:16 13° ESE 20:53:12 30° ENE 20:57:50 10° N
Transit 2A Rocket 4.5 20:51:55 10° NNW 20:56:15 90° WSW 20:59:52 15° SSE
CENTAUR R/B 3.8 20:55:23 14° ESE 20:56:17 14° ESE 20:59:27 10° ENE
GPS 2-04 Rocket1 2.8 20:52:06 10° W 20:56:19 75° S 20:59:43 16° ESE
Cosmos 2061 Rocket 4.4 20:50:43 10° SSW 20:57:06 71° W 21:03:27 10° N
Cosmos 2360 4.4 20:52:08 10° NNW 20:57:45 57° ENE 21:02:15 16° SE
SAR-Lupe-3 4.5 20:55:28 10° NNE 20:59:03 73° ESE 21:02:37 10° S
Lacrosse 4 Rocket 4.3 20:57:36 10° WNW 20:59:33 13° WSW 21:01:32 10° SW
Okean 3 3.5 20:56:25 10° S 21:00:43 85° W 21:05:01 10° N
ATLAS 3B R/B 2.8 20:58:02 10° SSW 21:05:19 90° WNW 21:12:19 10° NNE
Cosmos 1300 Rocket 3.7 21:04:36 10° N 21:08:59 74° W 21:13:17 10° S
Cosmos 1939 Rocket 4.2 21:05:55 10° SSW 21:09:44 39° W 21:13:37 10° NNW
Okean 1 3.2 21:09:03 10° S 21:13:05 79° E 21:17:09 10° N
Delta 7925 Rocket 4.5 21:09:38 10° SW 21:13:10 22° S 21:14:13 20° SSE
Spot 2 Rocket 3.7 21:11:22 10° S 21:16:22 73° WSW 21:21:24 10° NNW
Cosmos 44 Rocket 3.8 21:11:17 10° NW 21:16:24 63° WSW 21:20:19 17° SSE
Cosmos 2084 4.3 21:17:49 26° SE 21:18:32 27° ESE 21:22:06 10° ENE
Cosmos 1697 Rocket 3.5 21:16:29 10° NNW 21:21:55 49° WSW 21:27:06 11° S
Tsikada Rocket 4.0 21:16:51 10° N 21:23:17 85° E 21:28:50 15° S
Cosmos 468 Rocket 4.0 21:18:36 10° S 21:23:46 58° ESE 21:28:56 10° NNE
Shenzhou-11 Module 4.1 21:21:34 10° WNW 21:24:09 26° N 21:26:43 10° NE
USA 245 4.4 21:25:00 20° ENE 21:25:19 21° ENE 21:28:05 10° NNE
Cosmos 1500 4.4 21:22:36 10° NNW 21:26:15 41° W 21:29:49 10° SSW
ISS -3.1 21:24:38 10° WSW 21:27:51 55° NW 21:31:05 10° NE
Cosmos 1725 Rocket 4.4 21:21:51 10° SSW 21:27:57 65° W 21:34:07 10° N
Cosmos 2360 Rocket 4.2 21:27:30 10° NNE 21:30:33 15° NE 21:33:03 11° E
MetOp-B 4.3 21:27:45 26° SE 21:30:37 56° ENE 21:35:52 10° N
SL-08 RB Rocket 4.0 21:29:44 30° SE 21:31:34 49° ENE 21:35:57 10° N
Cosmos 1570 Rocket 4.1 21:26:54 10° SSW 21:32:14 79° WNW 21:37:37 10° NNE
Cosmos 1980 Rocket 2.4 21:28:10 10° NNW 21:33:48 71° WSW 21:37:31 22° S
Cosmos 1763 Rocket 3.8 21:34:07 26° SSE 21:36:47 46° ESE 21:41:50 10° NNE
Cosmos 841 Rocket 4.2 21:37:55 31° ESE 21:38:42 32° E 21:43:20 10° NE
Cosmos 1666 2.6 21:37:29 10° N 21:41:22 81° E 21:42:32 44° SSE
SPOT 1/Viking Rocket 4.5 21:40:44 27° E 21:42:16 32° ENE 21:46:49 10° N
Cosmos 1743 2.6 21:38:59 10° N 21:42:50 76° E 21:43:46 48° SSE
OAO 1 Rocket 4.4 21:39:20 10° WSW 21:44:35 63° SSE 21:47:11 30° E
H-2A R/B 1.9 21:44:12 35° SSE 21:46:16 73° ENE 21:51:14 10° N
Meteor 2-4 Rocket 3.7 21:45:42 33° SSE 21:47:50 55° E 21:53:12 10° NNE
Abrixas rocket 2.0 21:44:48 10° SW 21:48:01 87° NW 21:48:33 60° NE
DMSP B5D2-2 4.2 21:45:13 10° NNE 21:50:23 52° E 21:52:04 38° SSE
Cosmos 1340 Rocket 3.5 21:51:32 38° E 21:51:32 38° E 21:55:00 10° NNE
Helios 1B rocket 3.4 21:49:45 10° NNE 21:52:46 30° ENE 21:52:46 30° ENE
Iridium 2 3.6 21:53:45 49° SSW 21:54:41 83° W 21:58:31 10° N
Cosmos 1455 Rocket 3.5 21:51:43 10° N 21:55:51 41° E 21:56:06 41° E
ATLAS CENTAUR R/B 2.4 21:53:18 10° NW 21:57:42 45° WSW 21:59:25 31° SSW
deb Kosmos-1763 4.5 21:57:32 29° SW 21:59:13 62° WNW 22:02:53 10° N
Cosmos 1975 Rocket 3.6 21:59:35 23° SSW 22:02:05 56° W 22:06:21 10° N
Cosmos 1242 Rocket 2.6 21:58:30 10° NNW 22:02:10 71° W 22:02:29 65° SW
Meteor 1-13 Rocket 4.2 21:58:58 26° S 22:02:29 88° E 22:08:27 10° N
Cosmos 1898 Rocket 3.4 21:58:38 10° NNW 22:03:58 86° ENE 22:05:31 47° SSE
Tiangong 2 1.9 22:04:01 10° W 22:06:44 49° NW 22:06:44 49° NW
Resurs 01 Rocket 4.3 22:05:11 10° WSW 22:07:10 13° W 22:09:08 10° WNW
Cosmos 1814 Rocket 3.9 22:06:16 31° SSW 22:08:50 88° ESE 22:14:09 10° NNE
Cosmos 1072 Rocket 4.4 22:06:21 35° S 22:09:14 75° E 22:15:33 10° N
ERS-1 Rocket 2.9 22:07:59 46° S 22:09:30 81° WSW 22:14:33 10° NNW
NOSS 3-2 (C) 4.0 22:06:08 10° SW 22:11:53 58° NW 22:18:16 10° NNE
Cosmos 1975 4.4 22:08:53 10° NNW 22:12:29 31° W 22:14:02 23° SW
BREEZE M DEB (TANK) 2.9 22:04:25 10° NW 22:12:30 57° NNE 22:13:13 48° ENE
BREEZE-M DEB (TANK) 4.3 22:14:15 10° W 22:14:30 12° W 22:14:30 12° W
Cosmos 292 Rocket 3.6 22:16:51 69° SE 22:17:05 70° ESE 22:21:50 10° NNE
Meteor 2-20 4.4 22:11:00 10° N 22:17:10 87° W 22:19:22 43° S
Atlas Centaur 2 3.4 22:14:04 10° WSW 22:14:50 15° WSW 22:14:50 15° WSW
Meteor 2-20 Rocket 4.4 22:14:02 10° N 22:20:11 76° E 22:21:48 51° SSE
Cosmos 1515 4.4 22:21:35 45° NNE 22:21:35 45° NNE 22:24:24 10° NNE
Cosmos 1544 Rocket 3.4 22:18:13 10° N 22:22:39 89° E 22:22:46 85° SSE
Cosmos 2322 Rocket 2.1 22:17:05 10° NNW 22:22:44 89° E 22:23:50 59° SSE
SL-16 R/B 2.2 22:23:33 10° NNW 22:29:13 76° WSW 22:30:19 58° S
Cosmos 2150 Rocket 3.9 22:24:32 10° NNW 22:29:56 73° ENE 22:30:25 68° ESE
Nadezhda 4 Rocket 4.3 22:24:57 10° N 22:31:01 48° E 22:31:47 46° E
Cosmos 990 Rocket 4.0 22:27:43 10° NNW 22:32:54 72° WSW 22:33:34 63° SSW
SPOT 5 2.6 22:33:18 73° W 22:33:18 73° W 22:37:43 10° NNW
Cosmos 1536 Rocket 3.6 22:35:35 77° NNW 22:35:35 77° NNW 22:39:45 10° N
Landsat 7 3.7 22:39:40 86° W 22:39:40 86° W 22:44:26 10° NNW
Helios 1A 3.6 22:40:33 50° W 22:40:33 50° W 22:44:23 10° NNW
CZ-2C R/B 3.6 22:41:02 46° ENE 22:41:04 46° ENE 22:46:17 10° N
Nimbus 7 Rocket 4.3 22:36:05 10° NNE 22:41:56 65° ESE 22:42:12 64° ESE
SJ 16-02 2.6 22:38:45 10° N 22:42:00 33° NE 22:42:00 33° NE
CENTAUR R/B 2.5 22:42:22 27° SW 22:45:48 75° WNW 22:52:32 10° NNE
Cosmos 2298 Rocket 4.1 22:43:52 10° NNW 22:49:08 65° WSW 22:49:22 64° WSW
Cosmos 2034 Rocket 4.0 22:49:35 54° SSW 22:51:01 76° W 22:57:11 10° N
Terra 2.0 22:58:53 69° NNW 22:58:53 69° NNW 23:03:06 10° NNW
Lacrosse 5 rocket 3.3 23:00:30 10° NNW 23:03:33 23° NNE 23:03:33 23° NNE
ISS -0.2 23:04:02 10° NW 23:04:56 11° NNW 23:05:49 10° N
Cosmos 2360 Rocket 2.2 23:09:32 10° NNW 23:14:49 74° WNW 23:14:49 74° WNW
Cosmos 2219 Rocket 3.3 23:16:55 10° N 23:21:44 32° ENE 23:21:44 32° ENE
Cosmos 540 Rocket 4.3 23:21:34 43° W 23:21:59 44° WNW 23:26:56 10° N
Cosmos 1634 Rocket 3.9 23:22:16 75° ENE 23:22:16 75° ENE 23:28:22 10° N
CZ-4C R/B 3.7 23:15:13 10° NNW 23:22:02 41° NE 23:24:16 35° E
Cosmos 2333 Rocket 3.4 23:22:46 10° N 23:27:45 33° ENE 23:27:45 33° ENE
CZ-2C R/B 2.9 23:24:14 10° N 23:29:29 72° NW 23:29:29 72° NW
COSMOS 2428 3.2 23:25:48 10° NNW 23:30:47 53° NE 23:30:47 53° NE
H-2A R/B 4.2 23:57:38 22° NNE 23:57:38 22° NNE 23:59:38 10° N
